Location: Boston
(42.3580°N, 71.0600°W)
Time: 14:17:51
(UTC-05:00)

Envisat - Pass Details

Date: 15 October 2017
Orbit: 764 x 766 km, 98.2° (Epoch: 10 December)

Event Time Altitude Azimuth Distance (km) Brightness Sun altitude
Exits shadow 21:23:13 26° 295° (WNW) 1,467 4.9 -37.2°
Drops below altitude 10° 21:26:14 10° 326° (NNW) 2,313 6.0 -37.7°
Sets 21:28:48 0° 337° (NNW) 3,244 6.8 -38.2°
